Find Starlink 6377

NORAD ID: 57341 Int'l Des: 2023-099 Owner: SPXS Country: US Constellation: starlink operational
LEOCIRCULAR

实时位置

正在加载3D地球...

关于 Starlink 6377

正在加载描述...

即将过境

Passes for default location (London). Set your location on the main map for personalized predictions.

高度历史

Loading altitude history...

两行轨道根数

1 57341U 23099P 26127.77667831 .00000680 00000-0 34246-4 0 9993
2 57341 43.0004 282.0675 0001325 266.1677 93.9023 15.27581551155073
Epoch: May 7, 2026 • Age: 7 hours

当前状态

高度 490.5 km
速度 7.62 km/s
星下点 -30.25°S, 115.73°W
发射日期 Jul 16, 2023
运行时间 2.8 years
类型 internet

技术详情

分类 Payload
质量 305.00 kg
干质量 290.00 kg
总质量 305.00 kg
长度 0.20 m
直径 2.80 m
跨度 9.00 m
形状 Box + pan
制造商 SPXS
平台类型 Starlink
阶段状态 In Orbit
所有者/国家 SPXS/US

Most Searched